Buckhannon, WV

10:48 AM EDT on August 18, 2017 (GMT -0400)
Buckhannon

Weather History for KW22 - November, 2013

Change the Weather History Date:

Friday, November 1, 2013

  Actual Average (KCKB) Record (KCKB)
Temperature  
Mean Temperature 60 °F -  
Max Temperature 69 °F 64 °F 81 °F (1927)
Min Temperature 50 °F 38 °F 24 °F (1954)
Degree Days  
Heating Degree Days 6    
Growing Degree Days 10 (Base 50)    
Moisture  
Dew Point 48 °F    
Average Humidity 69    
Maximum Humidity 100    
Minimum Humidity 45    
Precipitation  
Precipitation 0.42 in - - ()
Sea Level Pressure  
Sea Level Pressure 29.69 in    
Wind  
Wind Speed 15 mph (SW)    
Max Wind Speed 33 mph    
Max Gust Speed 50 mph    
Visibility 9 miles    
Events Rain    
Averages and records for this station are not official NWS values.
T = Trace of Precipitation, MM = Missing Value Source: NWS Daily Summary

Daily Weather History Graph

Daily Weather History Graph

Search for Another Location

Airport or City:

Trip Planner

Search our weather history database for the weather conditions in past years. The results will help you decide how hot, cold, wet, or windy it might be!

Date:

Astronomy

Nov. 01, 2013 Rise Set
Actual Time 7:48 AM EDT 6:20 PM EDT
Civil Twilight 7:20 AM EDT 6:47 PM EDT
Nautical Twilight 6:49 AM EDT 7:19 PM EDT
Astronomical Twilight 6:18 AM EDT 7:50 PM EDT
Moon 5:40 AM EDT (11/1) 5:11 PM EDT (11/1)
Length of Visible Light 11h 26m
Length of Day
10h 31m
Waning Crescent, 4% of the Moon is Illuminated
Nov 1
Waning Crescent
Nov 3
New
Nov 10
First Quarter
Nov 17
Full
Nov 25
Last Quarter

Hourly Weather History & Observations

Time (EDT) Temp. Dew Point Humidity Pressure Visibility Wind Dir Wind Speed Gust Speed Precip Events Conditions
12:15 AM 68.0 °F 53.6 °F 60% 29.59 in 10.0 mi South 23.0 mph 28.8 mph N/A   Clear
12:35 AM 68.0 °F 53.6 °F 60% 29.58 in 10.0 mi South 21.9 mph 31.1 mph N/A   Clear
12:55 AM 68.0 °F 53.6 °F 60% 29.57 in 10.0 mi South 24.2 mph 32.2 mph N/A   Scattered Clouds
1:15 AM 69.8 °F 53.6 °F 56% 29.56 in 10.0 mi South 17.3 mph 40.3 mph N/A   Partly Cloudy
1:35 AM 69.8 °F 53.6 °F 56% 29.55 in 10.0 mi South 18.4 mph 35.7 mph N/A   Clear
1:55 AM 69.8 °F 53.6 °F 56% 29.54 in 10.0 mi South 18.4 mph 27.6 mph N/A   Partly Cloudy
2:15 AM 69.8 °F 55.4 °F 60% 29.53 in 10.0 mi South 23.0 mph 31.1 mph N/A   Scattered Clouds
2:35 AM 69.8 °F 55.4 °F 60% 29.52 in 10.0 mi South 18.4 mph 38.0 mph N/A   Scattered Clouds
2:55 AM 69.8 °F 55.4 °F 60% 29.53 in 9.0 mi SSW 33.4 mph 49.5 mph N/A   Mostly Cloudy
3:15 AM 69.8 °F 55.4 °F 60% 29.52 in 10.0 mi SSW 24.2 mph 33.4 mph N/A   Scattered Clouds
3:35 AM 66.2 °F 57.2 °F 73% 29.52 in 10.0 mi SSW 21.9 mph 36.8 mph N/A   Scattered Clouds
3:55 AM 68.0 °F 55.4 °F 64% 29.50 in 10.0 mi SSW 23.0 mph 31.1 mph N/A   Scattered Clouds
4:15 AM 55.4 °F 55.4 °F 100% 29.61 in 4.0 mi West 19.6 mph 41.4 mph 0.18 in Rain Light Rain
4:35 AM 55.4 °F 55.4 °F 100% 29.64 in 2.5 mi West 15.0 mph 23.0 mph 0.25 in Rain Heavy Rain
4:55 AM 53.6 °F 53.6 °F 100% 29.62 in 8.0 mi WSW 9.2 mph 20.7 mph 0.31 in   Light Drizzle
5:15 AM 53.6 °F 53.6 °F 100% 29.64 in 3.0 mi SW 11.5 mph 18.4 mph 0.04 in   Mostly Cloudy
5:35 AM 53.6 °F 53.6 °F 100% 29.64 in 6.0 mi SSW 12.7 mph 18.4 mph 0.06 in Rain Light Rain
5:55 AM 53.6 °F 53.6 °F 100% 29.65 in 3.0 mi SSW 13.8 mph 18.4 mph 0.07 in   Mostly Cloudy
6:15 AM 53.6 °F 53.6 °F 100% 29.65 in 5.0 mi SSW 12.7 mph 18.4 mph 0.01 in   Overcast
6:35 AM 55.4 °F 55.4 °F 100% 29.66 in 8.0 mi SSW 13.8 mph 19.6 mph 0.02 in   Overcast
6:55 AM 55.4 °F 55.4 °F 100% 29.68 in 7.0 mi SSW 12.7 mph 18.4 mph 0.04 in   Mostly Cloudy
7:15 AM 55.4 °F 55.4 °F 100% 29.70 in 10.0 mi SW 10.4 mph 18.4 mph N/A   Overcast
7:35 AM 55.4 °F 55.4 °F 100% 29.72 in 10.0 mi SW 13.8 mph - N/A Rain Light Rain
7:55 AM 55.4 °F 53.6 °F 94% 29.72 in 10.0 mi SW 11.5 mph - N/A   Mostly Cloudy
8:15 AM 55.4 °F 53.6 °F 94% 29.72 in 10.0 mi SSW 9.2 mph - N/A   Scattered Clouds
8:35 AM 55.4 °F 53.6 °F 94% 29.73 in 10.0 mi SSW 9.2 mph 16.1 mph N/A   Mostly Cloudy
8:55 AM 55.4 °F 53.6 °F 94% 29.74 in 10.0 mi SSW 11.5 mph - N/A   Mostly Cloudy
9:15 AM 55.4 °F 51.8 °F 88% 29.74 in 10.0 mi SSW 15.0 mph 18.4 mph N/A   Overcast
9:35 AM 57.2 °F 51.8 °F 82% 29.75 in 10.0 mi SSW 15.0 mph 19.6 mph N/A   Mostly Cloudy
9:55 AM 57.2 °F 50.0 °F 77% 29.76 in 10.0 mi SW 15.0 mph 24.2 mph N/A   Partly Cloudy
10:15 AM 57.2 °F 50.0 °F 77% 29.76 in 10.0 mi WSW 13.8 mph - N/A   Scattered Clouds
10:35 AM 57.2 °F 48.2 °F 72% 29.76 in 10.0 mi SW 18.4 mph 23.0 mph N/A   Partly Cloudy
10:55 AM 57.2 °F 48.2 °F 72% 29.75 in 10.0 mi SW 17.3 mph 21.9 mph N/A   Clear
11:15 AM 57.2 °F 48.2 °F 72% 29.75 in 10.0 mi SW 18.4 mph 23.0 mph N/A   Partly Cloudy
11:35 AM 57.2 °F 46.4 °F 67% 29.75 in 10.0 mi SW 13.8 mph 24.2 mph N/A   Clear
11:55 AM 57.2 °F 48.2 °F 72% 29.75 in 10.0 mi SW 9.2 mph 19.6 mph N/A   Clear
12:15 PM 60.8 °F 46.4 °F 59% 29.74 in 10.0 mi WSW 13.8 mph 19.6 mph N/A   Clear
12:35 PM 60.8 °F 46.4 °F 59% 29.74 in 10.0 mi WSW 16.1 mph 21.9 mph N/A   Clear
12:55 PM 60.8 °F 46.4 °F 59% 29.73 in 10.0 mi WSW 16.1 mph 24.2 mph N/A   Clear
1:15 PM 62.6 °F 46.4 °F 55% 29.72 in 10.0 mi WSW 12.7 mph 23.0 mph N/A   Scattered Clouds
1:35 PM 62.6 °F 46.4 °F 55% 29.71 in 10.0 mi SSW 10.4 mph 17.3 mph N/A   Scattered Clouds
1:55 PM 62.6 °F 44.6 °F 52% 29.71 in 10.0 mi WSW 18.4 mph 25.3 mph N/A   Scattered Clouds
2:15 PM 62.6 °F 42.8 °F 48% 29.70 in 10.0 mi SW 15.0 mph 24.2 mph N/A   Partly Cloudy
2:35 PM 64.4 °F 42.8 °F 45% 29.70 in 10.0 mi SW 16.1 mph 25.3 mph N/A   Partly Cloudy
2:55 PM 62.6 °F 42.8 °F 48% 29.69 in 10.0 mi SW 11.5 mph 20.7 mph N/A   Partly Cloudy
3:15 PM 62.6 °F 42.8 °F 48% 29.68 in 10.0 mi WSW 13.8 mph - N/A   Partly Cloudy
3:35 PM 62.6 °F 42.8 °F 48% 29.68 in 10.0 mi WSW 10.4 mph - N/A   Partly Cloudy
3:55 PM 64.4 °F 42.8 °F 45% 29.68 in 10.0 mi SW 16.1 mph 20.7 mph N/A   Clear
4:15 PM 64.4 °F 42.8 °F 45% 29.69 in 10.0 mi SW 11.5 mph 17.3 mph N/A   Clear
5:55 PM 62.6 °F 42.8 °F 48% 29.69 in 10.0 mi Calm Calm - N/A   Clear
6:15 PM 60.8 °F 42.8 °F 52% 29.70 in 10.0 mi WSW 6.9 mph - N/A   Clear
6:35 PM 60.8 °F 41.0 °F 48% 29.70 in 10.0 mi WSW 6.9 mph - N/A   Clear
6:55 PM 59.0 °F 41.0 °F 51% 29.71 in 10.0 mi West 5.8 mph - N/A   Clear
7:15 PM 59.0 °F 41.0 °F 51% 29.72 in 10.0 mi West 6.9 mph - N/A   Partly Cloudy
7:35 PM 57.2 °F 41.0 °F 55% 29.73 in 10.0 mi Calm Calm - N/A   Partly Cloudy
7:55 PM 57.2 °F 42.8 °F 59% 29.74 in 10.0 mi Calm Calm - N/A   Partly Cloudy
8:15 PM 55.4 °F 42.8 °F 63% 29.74 in 10.0 mi Calm Calm - N/A   Clear
8:35 PM 57.2 °F 42.8 °F 59% 29.74 in 10.0 mi WNW 4.6 mph - N/A   Clear
8:55 PM 55.4 °F 42.8 °F 63% 29.75 in 10.0 mi Calm Calm - N/A   Clear
9:15 PM 55.4 °F 42.8 °F 63% 29.75 in 10.0 mi Calm Calm - N/A   Clear
9:35 PM 55.4 °F 42.8 °F 63% 29.75 in 10.0 mi Calm Calm - N/A   Clear
9:55 PM 53.6 °F 42.8 °F 67% 29.76 in 10.0 mi Calm Calm - N/A   Partly Cloudy
10:15 PM 53.6 °F 42.8 °F 67% 29.76 in 10.0 mi Calm Calm - N/A   Mostly Cloudy
10:35 PM 51.8 °F 42.8 °F 71% 29.76 in 10.0 mi Calm Calm - N/A   Scattered Clouds
10:55 PM 51.8 °F 42.8 °F 71% 29.76 in 10.0 mi Calm Calm - N/A   Scattered Clouds
11:15 PM 50.0 °F 42.8 °F 76% 29.76 in 10.0 mi Calm Calm - N/A   Mostly Cloudy
11:35 PM 50.0 °F 42.8 °F 76% 29.76 in 10.0 mi Calm Calm - N/A   Mostly Cloudy
11:55 PM 51.8 °F 42.8 °F 71% 29.75 in 10.0 mi South 3.5 mph - N/A   Mostly Cloudy